Year,Month,Day,Hour,Minute,Value (Times are PST for temperature in C)
2021,06,27,00,00,24.70
2021,06,27,00,01,24.70
2021,06,27,00,02,24.70
2021,06,27,00,03,24.70
2021,06,27,00,04,24.70
2021,06,27,00,05,24.70
2021,06,27,00,06,24.70
2021,06,27,00,07,24.70
2021,06,27,00,08,24.70
2021,06,27,00,09,24.70
2021,06,27,00,10,24.60
2021,06,27,00,11,24.60
2021,06,27,00,12,24.60
2021,06,27,00,13,24.60
2021,06,27,00,14,24.60
2021,06,27,00,15,24.60
2021,06,27,00,16,24.60
2021,06,27,00,17,24.50
2021,06,27,00,18,24.50
2021,06,27,00,19,24.50
2021,06,27,00,20,24.50
2021,06,27,00,21,24.50
2021,06,27,00,22,24.40
2021,06,27,00,23,24.40
2021,06,27,00,24,24.40
2021,06,27,00,25,24.30
2021,06,27,00,26,24.30
2021,06,27,00,27,24.30
2021,06,27,00,28,24.20
2021,06,27,00,29,24.20
2021,06,27,00,30,24.20
2021,06,27,00,31,24.20
2021,06,27,00,32,24.20
2021,06,27,00,33,24.10
2021,06,27,00,34,24.10
2021,06,27,00,35,24.10
2021,06,27,00,36,24.10
2021,06,27,00,37,24.10
2021,06,27,00,38,24.10
2021,06,27,00,39,24.10
2021,06,27,00,40,24.10
2021,06,27,00,41,24.10
2021,06,27,00,42,24.10
2021,06,27,00,43,24.10
2021,06,27,00,44,24.10
2021,06,27,00,45,24.10
2021,06,27,00,46,24.10
2021,06,27,00,47,24.10
2021,06,27,00,48,24.10
2021,06,27,00,49,24.10
2021,06,27,00,50,24.10
2021,06,27,00,51,24.10
2021,06,27,00,52,24.10
2021,06,27,00,53,24.10
2021,06,27,00,54,24.10
2021,06,27,00,55,24.10
2021,06,27,00,56,24.10
2021,06,27,00,57,24.10
2021,06,27,00,58,24.10
2021,06,27,00,59,24.10
2021,06,27,01,00,24.00
2021,06,27,01,01,23.90
2021,06,27,01,02,23.90
2021,06,27,01,03,23.90
2021,06,27,01,04,23.90
2021,06,27,01,05,23.90
2021,06,27,01,06,23.90
2021,06,27,01,07,23.90
2021,06,27,01,08,23.80
2021,06,27,01,09,23.80
2021,06,27,01,10,23.80
2021,06,27,01,11,23.80
2021,06,27,01,12,23.80
2021,06,27,01,13,23.80
2021,06,27,01,14,23.70
2021,06,27,01,15,23.70
2021,06,27,01,16,23.70
2021,06,27,01,17,23.70
2021,06,27,01,18,23.70
2021,06,27,01,19,23.70
2021,06,27,01,20,23.70
2021,06,27,01,21,23.60
2021,06,27,01,22,23.60
2021,06,27,01,23,23.60
2021,06,27,01,24,23.60
2021,06,27,01,25,23.50
2021,06,27,01,26,23.40
2021,06,27,01,27,23.40
2021,06,27,01,28,23.40
2021,06,27,01,29,23.40
2021,06,27,01,30,23.40
2021,06,27,01,31,23.40
2021,06,27,01,32,23.40
2021,06,27,01,33,23.40
2021,06,27,01,34,23.40
2021,06,27,01,35,23.30
2021,06,27,01,36,23.30
2021,06,27,01,37,23.30
2021,06,27,01,38,23.30
2021,06,27,01,39,23.30
2021,06,27,01,40,23.20
2021,06,27,01,41,23.20
2021,06,27,01,42,23.20
2021,06,27,01,43,23.10
2021,06,27,01,44,23.10
2021,06,27,01,45,23.10
2021,06,27,01,46,23.10
2021,06,27,01,47,23.10
2021,06,27,01,48,23.10
2021,06,27,01,49,23.10
2021,06,27,01,50,23.10
2021,06,27,01,51,23.00
2021,06,27,01,52,23.00
2021,06,27,01,53,23.00
2021,06,27,01,54,22.90
2021,06,27,01,55,22.90
2021,06,27,01,56,22.90
2021,06,27,01,57,22.90
2021,06,27,01,58,22.90
2021,06,27,01,59,22.80
2021,06,27,02,00,22.70
2021,06,27,02,01,22.70
2021,06,27,02,02,22.60
2021,06,27,02,03,22.60
2021,06,27,02,04,22.50
2021,06,27,02,05,22.50
2021,06,27,02,06,22.40
2021,06,27,02,07,22.40
2021,06,27,02,08,22.40
2021,06,27,02,09,22.40
2021,06,27,02,10,22.30
2021,06,27,02,11,22.30
2021,06,27,02,12,22.30
2021,06,27,02,13,22.30
2021,06,27,02,14,22.20
2021,06,27,02,15,22.10
2021,06,27,02,16,22.00
2021,06,27,02,17,21.90
2021,06,27,02,18,21.90
2021,06,27,02,19,21.80
2021,06,27,02,20,21.80
2021,06,27,02,21,21.80
2021,06,27,02,22,21.70
2021,06,27,02,23,21.70
2021,06,27,02,24,21.60
2021,06,27,02,25,21.60
2021,06,27,02,26,21.60
2021,06,27,02,27,21.60
2021,06,27,02,28,21.60
2021,06,27,02,29,21.50
2021,06,27,02,30,21.40
2021,06,27,02,31,21.30
2021,06,27,02,32,21.30
2021,06,27,02,33,21.30
2021,06,27,02,34,21.30
2021,06,27,02,35,21.20
2021,06,27,02,36,21.20
2021,06,27,02,37,21.10
2021,06,27,02,38,21.10
2021,06,27,02,39,21.10
2021,06,27,02,40,21.10
2021,06,27,02,41,21.10
2021,06,27,02,42,21.10
2021,06,27,02,43,21.10
2021,06,27,02,44,21.10
2021,06,27,02,45,21.20
2021,06,27,02,46,21.20
2021,06,27,02,47,21.20
2021,06,27,02,48,21.20
2021,06,27,02,49,21.20
2021,06,27,02,50,21.20
2021,06,27,02,51,21.10
2021,06,27,02,52,21.10
2021,06,27,02,53,21.10
2021,06,27,02,54,21.10
2021,06,27,02,55,21.10
2021,06,27,02,56,21.10
2021,06,27,02,57,21.10
2021,06,27,02,58,21.10
2021,06,27,02,59,21.10
2021,06,27,03,00,21.10
2021,06,27,03,01,21.20
2021,06,27,03,02,21.20
2021,06,27,03,03,21.20
2021,06,27,03,04,21.20
2021,06,27,03,05,21.20
2021,06,27,03,06,21.20
2021,06,27,03,07,21.20
2021,06,27,03,08,21.20
2021,06,27,03,09,21.20
2021,06,27,03,10,21.20
2021,06,27,03,11,21.20
2021,06,27,03,12,21.20
2021,06,27,03,13,21.20
2021,06,27,03,14,21.20
2021,06,27,03,15,21.20
2021,06,27,03,16,21.20
2021,06,27,03,17,21.20
2021,06,27,03,18,21.10
2021,06,27,03,19,21.10
2021,06,27,03,20,21.10
2021,06,27,03,21,21.10
2021,06,27,03,22,21.00
2021,06,27,03,23,21.00
2021,06,27,03,24,21.00
2021,06,27,03,25,21.00
2021,06,27,03,26,21.00
2021,06,27,03,27,21.00
2021,06,27,03,28,21.00
2021,06,27,03,29,21.00
2021,06,27,03,30,21.00
2021,06,27,03,31,21.00
2021,06,27,03,32,21.00
2021,06,27,03,33,21.10
2021,06,27,03,34,21.10
2021,06,27,03,35,21.10
2021,06,27,03,36,21.10
2021,06,27,03,37,21.10
2021,06,27,03,38,21.00
2021,06,27,03,39,21.00
2021,06,27,03,40,21.00
2021,06,27,03,41,21.00
2021,06,27,03,42,21.00
2021,06,27,03,43,21.00
2021,06,27,03,44,21.00
2021,06,27,03,45,21.00
2021,06,27,03,46,21.00
2021,06,27,03,47,21.00
2021,06,27,03,48,21.00
2021,06,27,03,49,21.00
2021,06,27,03,50,21.00
2021,06,27,03,51,21.00
2021,06,27,03,52,21.00
2021,06,27,03,53,21.00
2021,06,27,03,54,21.00
2021,06,27,03,55,20.90
2021,06,27,03,56,20.90
2021,06,27,03,57,20.90
2021,06,27,03,58,20.90
2021,06,27,03,59,20.90
2021,06,27,04,00,20.80
2021,06,27,04,01,20.80
2021,06,27,04,02,20.80
2021,06,27,04,03,20.80
2021,06,27,04,04,20.80
2021,06,27,04,05,20.80
2021,06,27,04,06,20.80
2021,06,27,04,07,20.80
2021,06,27,04,08,20.90
2021,06,27,04,09,20.90
2021,06,27,04,10,20.80
2021,06,27,04,11,20.80
2021,06,27,04,12,20.80
2021,06,27,04,13,20.80
2021,06,27,04,14,20.80
2021,06,27,04,15,20.80
2021,06,27,04,16,20.80
2021,06,27,04,17,20.80
2021,06,27,04,18,20.80
2021,06,27,04,19,20.90
2021,06,27,04,20,20.90
2021,06,27,04,21,20.90
2021,06,27,04,22,20.90
2021,06,27,04,23,20.90
2021,06,27,04,24,20.90
2021,06,27,04,25,20.80
2021,06,27,04,26,20.80
2021,06,27,04,27,20.80
2021,06,27,04,28,20.80
2021,06,27,04,29,20.80
2021,06,27,04,30,20.80
2021,06,27,04,31,20.80
2021,06,27,04,32,20.80
2021,06,27,04,33,20.80
2021,06,27,04,34,20.80
2021,06,27,04,35,20.80
2021,06,27,04,36,20.80
2021,06,27,04,37,20.80
2021,06,27,04,38,20.80
2021,06,27,04,39,20.80
2021,06,27,04,40,20.80
2021,06,27,04,41,20.80
2021,06,27,04,42,20.80
2021,06,27,04,43,20.80
2021,06,27,04,44,20.80
2021,06,27,04,45,20.80
2021,06,27,04,46,20.80
2021,06,27,04,47,20.70
2021,06,27,04,48,20.70
2021,06,27,04,49,20.70
2021,06,27,04,50,20.70
2021,06,27,04,51,20.60
2021,06,27,04,52,20.60
2021,06,27,04,53,20.60
2021,06,27,04,54,20.60
2021,06,27,04,55,20.60
2021,06,27,04,56,20.60
2021,06,27,04,57,20.60
2021,06,27,04,58,20.60
2021,06,27,04,59,20.60
2021,06,27,05,00,20.60
2021,06,27,05,01,20.60
2021,06,27,05,02,20.60
2021,06,27,05,03,20.60
2021,06,27,05,04,20.60
2021,06,27,05,05,20.60
2021,06,27,05,06,20.50
2021,06,27,05,07,20.50
2021,06,27,05,08,20.50
2021,06,27,05,09,20.50
2021,06,27,05,10,20.50
2021,06,27,05,11,20.50
2021,06,27,05,12,20.50
2021,06,27,05,13,20.50
2021,06,27,05,14,20.50
2021,06,27,05,15,20.50
2021,06,27,05,16,20.50
2021,06,27,05,17,20.50
2021,06,27,05,18,20.50
2021,06,27,05,19,20.50
2021,06,27,05,20,20.50
2021,06,27,05,21,20.40
2021,06,27,05,22,20.40
2021,06,27,05,23,20.40
2021,06,27,05,24,20.40
2021,06,27,05,25,20.40
2021,06,27,05,26,20.40
2021,06,27,05,27,20.40
2021,06,27,05,28,20.40
2021,06,27,05,29,20.40
2021,06,27,05,30,20.40
2021,06,27,05,31,20.40
2021,06,27,05,32,20.40
2021,06,27,05,33,20.40
2021,06,27,05,34,20.40
2021,06,27,05,35,20.40
2021,06,27,05,36,20.40
2021,06,27,05,37,20.40
2021,06,27,05,38,20.40
2021,06,27,05,39,20.40
2021,06,27,05,40,20.40
2021,06,27,05,41,20.30
2021,06,27,05,42,20.30
2021,06,27,05,43,20.30
2021,06,27,05,44,20.30
2021,06,27,05,45,20.40
2021,06,27,05,46,20.40
2021,06,27,05,47,20.40
2021,06,27,05,48,20.40
2021,06,27,05,49,20.40
2021,06,27,05,50,20.40
2021,06,27,05,51,20.40
2021,06,27,05,52,20.50
2021,06,27,05,53,20.50
2021,06,27,05,54,20.50
2021,06,27,05,55,20.50
2021,06,27,05,56,20.60
2021,06,27,05,57,20.70
2021,06,27,05,58,20.80
2021,06,27,05,59,20.80
2021,06,27,06,00,20.90
2021,06,27,06,01,21.00
2021,06,27,06,02,21.00
2021,06,27,06,03,21.10
2021,06,27,06,04,21.10
2021,06,27,06,05,21.10
2021,06,27,06,06,21.20
2021,06,27,06,07,21.20
2021,06,27,06,08,21.30
2021,06,27,06,09,21.30
2021,06,27,06,10,21.30
2021,06,27,06,11,21.40
2021,06,27,06,12,21.50
2021,06,27,06,13,21.60
2021,06,27,06,14,21.60
2021,06,27,06,15,21.60
2021,06,27,06,16,21.60
2021,06,27,06,17,21.60
2021,06,27,06,18,21.60
2021,06,27,06,19,21.60
2021,06,27,06,20,21.60
2021,06,27,06,21,21.70
2021,06,27,06,22,21.80
2021,06,27,06,23,21.80
2021,06,27,06,24,21.90
2021,06,27,06,25,22.00
2021,06,27,06,26,22.00
2021,06,27,06,27,22.20
2021,06,27,06,28,22.20
2021,06,27,06,29,22.30
2021,06,27,06,30,22.40
2021,06,27,06,31,22.50
2021,06,27,06,32,22.60
2021,06,27,06,33,22.60
2021,06,27,06,34,22.70
2021,06,27,06,35,22.80
2021,06,27,06,36,22.90
2021,06,27,06,37,23.00
2021,06,27,06,38,23.10
2021,06,27,06,39,23.20
2021,06,27,06,40,23.30
2021,06,27,06,41,23.30
2021,06,27,06,42,23.30
2021,06,27,06,43,23.40
2021,06,27,06,44,23.40
2021,06,27,06,45,23.40
2021,06,27,06,46,23.50
2021,06,27,06,47,23.60
2021,06,27,06,48,23.70
2021,06,27,06,49,23.70
2021,06,27,06,50,23.70
2021,06,27,06,51,23.80
2021,06,27,06,52,23.90
2021,06,27,06,53,24.00
2021,06,27,06,54,24.10
2021,06,27,06,55,24.10
2021,06,27,06,56,24.20
2021,06,27,06,57,24.30
2021,06,27,06,58,24.40
2021,06,27,06,59,24.50
2021,06,27,07,00,24.60
2021,06,27,07,01,24.70
2021,06,27,07,02,24.80
2021,06,27,07,03,24.80
2021,06,27,07,04,24.90
2021,06,27,07,05,24.90
2021,06,27,07,06,25.00
2021,06,27,07,07,25.10
2021,06,27,07,08,25.10
2021,06,27,07,09,25.20
2021,06,27,07,10,25.20
2021,06,27,07,11,25.30
2021,06,27,07,12,25.40
2021,06,27,07,13,25.40
2021,06,27,07,14,25.50
2021,06,27,07,15,25.60
2021,06,27,07,16,25.70
2021,06,27,07,17,25.80
2021,06,27,07,18,25.80
2021,06,27,07,19,25.90
2021,06,27,07,20,26.10
2021,06,27,07,21,26.20
2021,06,27,07,22,26.30
2021,06,27,07,23,26.50
2021,06,27,07,24,26.60
2021,06,27,07,25,26.70
2021,06,27,07,26,26.80
2021,06,27,07,27,26.80
2021,06,27,07,28,26.70
2021,06,27,07,29,26.50
2021,06,27,07,30,26.30
2021,06,27,07,31,26.10
2021,06,27,07,32,25.80
2021,06,27,07,33,25.60
2021,06,27,07,34,25.30
2021,06,27,07,35,25.10
2021,06,27,07,36,24.90
2021,06,27,07,37,24.60
2021,06,27,07,38,24.50
2021,06,27,07,39,24.30
2021,06,27,07,40,24.10
2021,06,27,07,41,23.90
2021,06,27,07,42,23.70
2021,06,27,07,43,23.50
2021,06,27,07,44,23.40
2021,06,27,07,45,23.30
2021,06,27,07,46,23.10
2021,06,27,07,47,23.00
2021,06,27,07,48,22.90
2021,06,27,07,49,22.90
2021,06,27,07,50,22.80
2021,06,27,07,51,22.70
2021,06,27,07,52,22.60
2021,06,27,07,53,22.60
2021,06,27,07,54,22.50
2021,06,27,07,55,22.50
2021,06,27,07,56,22.40
2021,06,27,07,57,22.40
2021,06,27,07,58,22.30
2021,06,27,07,59,22.30
2021,06,27,08,00,22.30
2021,06,27,08,01,22.30
2021,06,27,08,02,22.30
2021,06,27,08,03,22.40
2021,06,27,08,04,22.40
2021,06,27,08,05,22.40
2021,06,27,08,06,22.40
2021,06,27,08,07,22.50
2021,06,27,08,08,22.50
2021,06,27,08,09,22.60
2021,06,27,08,10,22.60
2021,06,27,08,11,22.70
2021,06,27,08,12,22.80
2021,06,27,08,13,22.80
2021,06,27,08,14,22.90
2021,06,27,08,15,22.90
2021,06,27,08,16,22.90
2021,06,27,08,17,23.00
2021,06,27,08,18,23.10
2021,06,27,08,19,23.20
2021,06,27,08,20,23.30
2021,06,27,08,21,23.30
2021,06,27,08,22,23.60
2021,06,27,08,23,23.70
2021,06,27,08,24,23.80
2021,06,27,08,25,23.90
2021,06,27,08,26,23.90
2021,06,27,08,27,24.10
2021,06,27,08,28,24.10
2021,06,27,08,29,24.10
2021,06,27,08,30,24.20
2021,06,27,08,31,24.30
2021,06,27,08,32,24.30
2021,06,27,08,33,24.40
2021,06,27,08,34,24.50
2021,06,27,08,35,24.50
2021,06,27,08,36,24.60
2021,06,27,08,37,24.60
2021,06,27,08,38,24.70
2021,06,27,08,39,24.80
2021,06,27,08,40,24.90
2021,06,27,08,41,25.00
2021,06,27,08,42,25.10
2021,06,27,08,43,25.10
2021,06,27,08,44,25.10
2021,06,27,08,45,25.10
2021,06,27,08,46,25.10
2021,06,27,08,47,25.20
2021,06,27,08,48,25.30
2021,06,27,08,49,25.50
2021,06,27,08,50,25.70
2021,06,27,08,51,25.80
2021,06,27,08,52,25.90
2021,06,27,08,53,26.10
2021,06,27,08,54,26.20
2021,06,27,08,55,26.30
2021,06,27,08,56,26.30
2021,06,27,08,57,26.40
2021,06,27,08,58,26.40
2021,06,27,08,59,26.50
2021,06,27,09,00,26.60
2021,06,27,09,01,26.60
2021,06,27,09,02,26.60
2021,06,27,09,03,26.70
2021,06,27,09,04,26.80
2021,06,27,09,05,27.00
2021,06,27,09,06,27.30
2021,06,27,09,07,27.60
2021,06,27,09,08,28.00
2021,06,27,09,09,28.30
2021,06,27,09,10,28.70
2021,06,27,09,11,29.00
2021,06,27,09,12,29.30
2021,06,27,09,13,29.60
2021,06,27,09,14,29.80
2021,06,27,09,15,29.90
2021,06,27,09,16,30.10
2021,06,27,09,17,30.30
2021,06,27,09,18,30.40
2021,06,27,09,19,30.60
2021,06,27,09,20,30.70
2021,06,27,09,21,30.90
2021,06,27,09,22,31.00
2021,06,27,09,23,31.10
2021,06,27,09,24,31.20
2021,06,27,09,25,31.20
2021,06,27,09,26,31.30
2021,06,27,09,27,31.30
2021,06,27,09,28,31.40
2021,06,27,09,29,31.40
2021,06,27,09,30,31.50
2021,06,27,09,31,31.60
2021,06,27,09,32,31.60
2021,06,27,09,33,31.60
2021,06,27,09,34,31.50
2021,06,27,09,35,31.40
2021,06,27,09,36,31.40
2021,06,27,09,37,31.50
2021,06,27,09,38,31.60
2021,06,27,09,39,31.70
2021,06,27,09,40,31.70
2021,06,27,09,41,31.70
2021,06,27,09,42,31.70
2021,06,27,09,43,31.70
2021,06,27,09,44,31.70
2021,06,27,09,45,31.70
2021,06,27,09,46,31.70
2021,06,27,09,47,31.60
2021,06,27,09,48,31.60
2021,06,27,09,49,31.60
2021,06,27,09,50,31.60
2021,06,27,09,51,31.60
2021,06,27,09,52,31.60
2021,06,27,09,53,31.60
2021,06,27,09,54,31.60
2021,06,27,09,55,31.60
2021,06,27,09,56,31.60
2021,06,27,09,57,31.60
2021,06,27,09,58,31.60
2021,06,27,09,59,31.60
2021,06,27,10,00,31.60
2021,06,27,10,01,31.60
2021,06,27,10,02,31.60
2021,06,27,10,03,31.60
2021,06,27,10,04,31.60
2021,06,27,10,05,31.60
2021,06,27,10,06,31.60
2021,06,27,10,07,31.60
2021,06,27,10,08,31.60
2021,06,27,10,09,31.70
2021,06,27,10,10,31.70
2021,06,27,10,11,31.70
2021,06,27,10,12,31.70
2021,06,27,10,13,31.80
2021,06,27,10,14,31.80
2021,06,27,10,15,31.90
2021,06,27,10,16,31.90
2021,06,27,10,17,31.90
2021,06,27,10,18,32.10
2021,06,27,10,19,32.10
2021,06,27,10,20,32.10
2021,06,27,10,21,32.10
2021,06,27,10,22,32.10
2021,06,27,10,23,32.10
2021,06,27,10,24,32.20
2021,06,27,10,25,32.20
2021,06,27,10,26,32.30
2021,06,27,10,27,32.30
2021,06,27,10,28,32.40
2021,06,27,10,29,32.40
2021,06,27,10,30,32.50
2021,06,27,10,31,32.60
2021,06,27,10,32,32.70
2021,06,27,10,33,32.80
2021,06,27,10,34,32.90
2021,06,27,10,35,32.90
2021,06,27,10,36,32.90
2021,06,27,10,37,32.90
2021,06,27,10,38,32.90
2021,06,27,10,39,32.90
2021,06,27,10,40,32.90
2021,06,27,10,41,32.80
2021,06,27,10,42,32.80
2021,06,27,10,43,32.80
2021,06,27,10,44,32.90
2021,06,27,10,45,33.00
2021,06,27,10,46,33.00
2021,06,27,10,47,33.10
2021,06,27,10,48,33.20
2021,06,27,10,49,33.30
2021,06,27,10,50,33.40
2021,06,27,10,51,33.40
2021,06,27,10,52,33.40
2021,06,27,10,53,33.50
2021,06,27,10,54,33.50
2021,06,27,10,55,33.50
2021,06,27,10,56,33.50
2021,06,27,10,57,33.60
2021,06,27,10,58,33.60
2021,06,27,10,59,33.60
2021,06,27,11,00,33.60
2021,06,27,11,01,33.60
2021,06,27,11,02,33.70
2021,06,27,11,03,33.70
2021,06,27,11,04,33.70
2021,06,27,11,05,33.70
2021,06,27,11,06,33.70
2021,06,27,11,07,33.70
2021,06,27,11,08,33.70
2021,06,27,11,09,33.80
2021,06,27,11,10,33.80
2021,06,27,11,11,33.80
2021,06,27,11,12,33.80
2021,06,27,11,13,33.90
2021,06,27,11,14,33.80
2021,06,27,11,15,33.80
2021,06,27,11,16,33.80
2021,06,27,11,17,33.80
2021,06,27,11,18,33.80
2021,06,27,11,19,33.90
2021,06,27,11,20,34.00
2021,06,27,11,21,34.00
2021,06,27,11,22,34.00
2021,06,27,11,23,34.10
2021,06,27,11,24,34.10
2021,06,27,11,25,34.20
2021,06,27,11,26,34.30
2021,06,27,11,27,34.30
2021,06,27,11,28,34.40
2021,06,27,11,29,34.50
2021,06,27,11,30,34.60
2021,06,27,11,31,34.60
2021,06,27,11,32,34.60
2021,06,27,11,33,34.70
2021,06,27,11,34,34.70
2021,06,27,11,35,34.70
2021,06,27,11,36,34.70
2021,06,27,11,37,34.70
2021,06,27,11,38,34.80
2021,06,27,11,39,34.80
2021,06,27,11,40,34.90
2021,06,27,11,41,34.90
2021,06,27,11,42,35.00
2021,06,27,11,43,35.10
2021,06,27,11,44,35.10
2021,06,27,11,45,35.10
2021,06,27,11,46,35.10
2021,06,27,11,47,35.00
2021,06,27,11,48,35.00
2021,06,27,11,49,35.10
2021,06,27,11,50,35.10
2021,06,27,11,51,35.10
2021,06,27,11,52,35.20
2021,06,27,11,53,35.10
2021,06,27,11,54,35.10
2021,06,27,11,55,35.10
2021,06,27,11,56,35.10
2021,06,27,11,57,35.20
2021,06,27,11,58,35.20
2021,06,27,11,59,35.20
2021,06,27,12,00,35.20
2021,06,27,12,01,35.10
2021,06,27,12,02,35.10
2021,06,27,12,03,35.10
2021,06,27,12,04,35.10
2021,06,27,12,05,35.10
2021,06,27,12,06,35.10
2021,06,27,12,07,35.00
2021,06,27,12,08,34.90
2021,06,27,12,09,34.90
2021,06,27,12,10,34.90
2021,06,27,12,11,34.80
2021,06,27,12,12,34.70
2021,06,27,12,13,34.60
2021,06,27,12,14,34.60
2021,06,27,12,15,34.70
2021,06,27,12,16,34.80
2021,06,27,12,17,34.80
2021,06,27,12,18,34.90
2021,06,27,12,19,35.00
2021,06,27,12,20,35.10
2021,06,27,12,21,35.30
2021,06,27,12,22,35.50
2021,06,27,12,23,35.60
2021,06,27,12,24,35.70
2021,06,27,12,25,35.70
2021,06,27,12,26,35.80
2021,06,27,12,27,35.90
2021,06,27,12,28,35.90
2021,06,27,12,29,35.90
2021,06,27,12,30,36.00
2021,06,27,12,31,36.00
2021,06,27,12,32,36.00
2021,06,27,12,33,36.00
2021,06,27,12,34,36.00
2021,06,27,12,35,35.90
2021,06,27,12,36,36.00
2021,06,27,12,37,35.90
2021,06,27,12,38,35.90
2021,06,27,12,39,35.90
2021,06,27,12,40,35.90
2021,06,27,12,41,36.00
2021,06,27,12,42,36.00
2021,06,27,12,43,36.10
2021,06,27,12,44,36.20
2021,06,27,12,45,36.20
2021,06,27,12,46,36.30
2021,06,27,12,47,36.40
2021,06,27,12,48,36.40
2021,06,27,12,49,36.40
2021,06,27,12,50,36.40
2021,06,27,12,51,36.40
2021,06,27,12,52,36.60
2021,06,27,12,53,36.60
2021,06,27,12,54,36.60
2021,06,27,12,55,36.60
2021,06,27,12,56,36.60
2021,06,27,12,57,36.70
2021,06,27,12,58,36.70
2021,06,27,12,59,36.70
2021,06,27,13,00,36.70
2021,06,27,13,01,36.70
2021,06,27,13,02,36.60
2021,06,27,13,03,36.60
2021,06,27,13,04,36.60
2021,06,27,13,05,36.60
2021,06,27,13,06,36.60
2021,06,27,13,07,36.60
2021,06,27,13,08,36.60
2021,06,27,13,09,36.60
2021,06,27,13,10,36.60
2021,06,27,13,11,36.60
2021,06,27,13,12,36.70
2021,06,27,13,13,36.70
2021,06,27,13,14,36.70
2021,06,27,13,15,36.70
2021,06,27,13,16,36.60
2021,06,27,13,17,36.70
2021,06,27,13,18,36.70
2021,06,27,13,19,36.70
2021,06,27,13,20,36.70
2021,06,27,13,21,36.70
2021,06,27,13,22,36.70
2021,06,27,13,23,36.70
2021,06,27,13,24,36.70
2021,06,27,13,25,36.70
2021,06,27,13,26,36.80
2021,06,27,13,27,36.80
2021,06,27,13,28,36.90
2021,06,27,13,29,37.00
2021,06,27,13,30,37.10
2021,06,27,13,31,37.20
2021,06,27,13,32,37.20
2021,06,27,13,33,37.30
2021,06,27,13,34,37.40
2021,06,27,13,35,37.40
2021,06,27,13,36,37.60
2021,06,27,13,37,37.60
2021,06,27,13,38,37.70
2021,06,27,13,39,37.70
2021,06,27,13,40,37.70
2021,06,27,13,41,37.70
2021,06,27,13,42,37.70
2021,06,27,13,43,37.70
2021,06,27,13,44,37.70
2021,06,27,13,45,37.90
2021,06,27,13,46,37.90
2021,06,27,13,47,38.00
2021,06,27,13,48,38.00
2021,06,27,13,49,38.00
2021,06,27,13,50,38.00
2021,06,27,13,51,37.80
2021,06,27,13,52,37.60
2021,06,27,13,53,37.30
2021,06,27,13,54,37.00
2021,06,27,13,55,36.80
2021,06,27,13,56,36.60
2021,06,27,13,57,36.60
2021,06,27,13,58,36.60
2021,06,27,13,59,36.70
2021,06,27,14,00,36.90
2021,06,27,14,01,37.10
2021,06,27,14,02,37.20
2021,06,27,14,03,37.40
2021,06,27,14,04,37.60
2021,06,27,14,05,37.70
2021,06,27,14,06,37.80
2021,06,27,14,07,37.90
2021,06,27,14,08,37.90
2021,06,27,14,09,38.00
2021,06,27,14,10,38.00
2021,06,27,14,11,38.00
2021,06,27,14,12,38.10
2021,06,27,14,13,38.00
2021,06,27,14,14,37.90
2021,06,27,14,15,37.90
2021,06,27,14,16,37.70
2021,06,27,14,17,37.80
2021,06,27,14,18,37.90
2021,06,27,14,19,37.90
2021,06,27,14,20,37.90
2021,06,27,14,21,37.80
2021,06,27,14,22,37.80
2021,06,27,14,23,37.90
2021,06,27,14,24,37.90
2021,06,27,14,25,37.90
2021,06,27,14,26,37.90
2021,06,27,14,27,37.90
2021,06,27,14,28,37.90
2021,06,27,14,29,37.80
2021,06,27,14,30,37.70
2021,06,27,14,31,37.70
2021,06,27,14,32,37.70
2021,06,27,14,33,37.70
2021,06,27,14,34,37.70
2021,06,27,14,35,37.70
2021,06,27,14,36,37.60
2021,06,27,14,37,37.60
2021,06,27,14,38,37.40
2021,06,27,14,39,37.40
2021,06,27,14,40,37.40
2021,06,27,14,41,37.40
2021,06,27,14,42,37.50
2021,06,27,14,43,37.60
2021,06,27,14,44,37.60
2021,06,27,14,45,37.70
2021,06,27,14,46,37.70
2021,06,27,14,47,37.70
2021,06,27,14,48,37.70
2021,06,27,14,49,37.70
2021,06,27,14,50,37.90
2021,06,27,14,51,37.90
2021,06,27,14,52,37.90
2021,06,27,14,53,38.00
2021,06,27,14,54,38.00
2021,06,27,14,55,37.90
2021,06,27,14,56,37.90
2021,06,27,14,57,38.00
2021,06,27,14,58,38.00
2021,06,27,14,59,38.20
2021,06,27,15,00,38.30
2021,06,27,15,01,38.40
2021,06,27,15,02,38.60
2021,06,27,15,03,38.70
2021,06,27,15,04,38.70
2021,06,27,15,05,38.70
2021,06,27,15,06,38.70
2021,06,27,15,07,38.70
2021,06,27,15,08,38.70
2021,06,27,15,09,38.70
2021,06,27,15,10,38.70
2021,06,27,15,11,38.90
2021,06,27,15,12,39.00
2021,06,27,15,13,39.10
2021,06,27,15,14,39.10
2021,06,27,15,15,39.10
2021,06,27,15,16,39.10
2021,06,27,15,17,39.00
2021,06,27,15,18,38.90
2021,06,27,15,19,38.90
2021,06,27,15,20,38.90
2021,06,27,15,21,38.90
2021,06,27,15,22,38.90
2021,06,27,15,23,38.90
2021,06,27,15,24,38.90
2021,06,27,15,25,38.90
2021,06,27,15,26,38.90
2021,06,27,15,27,38.90
2021,06,27,15,28,38.80
2021,06,27,15,29,38.80
2021,06,27,15,30,38.90
2021,06,27,15,31,38.90
2021,06,27,15,32,38.90
2021,06,27,15,33,39.00
2021,06,27,15,34,39.10
2021,06,27,15,35,39.10
2021,06,27,15,36,39.10
2021,06,27,15,37,39.10
2021,06,27,15,38,39.10
2021,06,27,15,39,39.10
2021,06,27,15,40,39.00
2021,06,27,15,41,38.90
2021,06,27,15,42,38.80
2021,06,27,15,43,38.70
2021,06,27,15,44,38.70
2021,06,27,15,45,38.70
2021,06,27,15,46,38.80
2021,06,27,15,47,38.90
2021,06,27,15,48,38.90
2021,06,27,15,49,38.80
2021,06,27,15,50,38.70
2021,06,27,15,51,38.70
2021,06,27,15,52,38.70
2021,06,27,15,53,38.70
2021,06,27,15,54,38.70
2021,06,27,15,55,38.60
2021,06,27,15,56,38.60
2021,06,27,15,57,38.60
2021,06,27,15,58,38.50
2021,06,27,15,59,38.60
2021,06,27,16,00,38.40
2021,06,27,16,01,38.40
2021,06,27,16,02,38.50
2021,06,27,16,03,38.60
2021,06,27,16,04,38.60
2021,06,27,16,05,38.70
2021,06,27,16,06,38.70
2021,06,27,16,07,38.80
2021,06,27,16,08,38.90
2021,06,27,16,09,38.90
2021,06,27,16,10,38.90
2021,06,27,16,11,38.80
2021,06,27,16,12,38.70
2021,06,27,16,13,38.70
2021,06,27,16,14,38.60
2021,06,27,16,15,38.60
2021,06,27,16,16,38.70
2021,06,27,16,17,38.70
2021,06,27,16,18,38.70
2021,06,27,16,19,38.70
2021,06,27,16,20,38.80
2021,06,27,16,21,38.90
2021,06,27,16,22,38.90
2021,06,27,16,23,38.80
2021,06,27,16,24,38.70
2021,06,27,16,25,38.70
2021,06,27,16,26,38.60
2021,06,27,16,27,38.60
2021,06,27,16,28,38.70
2021,06,27,16,29,38.70
2021,06,27,16,30,38.70
2021,06,27,16,31,38.60
2021,06,27,16,32,38.60
2021,06,27,16,33,38.60
2021,06,27,16,34,38.40
2021,06,27,16,35,38.40
2021,06,27,16,36,38.30
2021,06,27,16,37,38.30
2021,06,27,16,38,38.30
2021,06,27,16,39,38.20
2021,06,27,16,40,38.20
2021,06,27,16,41,38.20
2021,06,27,16,42,38.20
2021,06,27,16,43,38.20
2021,06,27,16,44,38.20
2021,06,27,16,45,38.00
2021,06,27,16,46,38.00
2021,06,27,16,47,38.00
2021,06,27,16,48,37.90
2021,06,27,16,49,37.90
2021,06,27,16,50,37.90
2021,06,27,16,51,37.90
2021,06,27,16,52,37.90
2021,06,27,16,53,37.90
2021,06,27,16,54,37.80
2021,06,27,16,55,37.70
2021,06,27,16,56,37.60
2021,06,27,16,57,37.60
2021,06,27,16,58,37.60
2021,06,27,16,59,37.60
2021,06,27,17,00,37.60
2021,06,27,17,01,37.60
2021,06,27,17,02,37.70
2021,06,27,17,03,37.70
2021,06,27,17,04,37.70
2021,06,27,17,05,37.70
2021,06,27,17,06,37.70
2021,06,27,17,07,37.90
2021,06,27,17,08,37.90
2021,06,27,17,09,37.90
2021,06,27,17,10,37.90
2021,06,27,17,11,37.90
2021,06,27,17,12,38.00
2021,06,27,17,13,38.00
2021,06,27,17,14,38.00
2021,06,27,17,15,38.00
2021,06,27,17,16,38.00
2021,06,27,17,17,38.00
2021,06,27,17,18,38.00
2021,06,27,17,19,38.00